AB776 CYGK-CYSN

Flight info

Callsign AB776
Flight time 0h 41m
Altitude 16000
Route ILIXU
Aircraft PC12/L-SDFGRWY/S

Departure

Time 2026-04-26 21:03
Airport Kingston Norman Rogers Airport (CYGK)

Arrival

Time 2026-04-26 21:44
Airport Niagara District Airport (CYSN)
Time Latitude Longitude Altitude Speed Heading
2026-04-26 20:51 44.21856 -76.59897 301 ft 0 kts 234°
2026-04-26 20:58 44.21853 -76.59934 301 ft 9 kts 281°
2026-04-26 20:59 44.21871 -76.60041 301 ft 13 kts 290°
2026-04-26 20:59 44.21910 -76.60156 301 ft 13 kts 304°
2026-04-26 20:59 44.22012 -76.60189 300 ft 17 kts 355°
2026-04-26 20:59 44.22142 -76.60205 302 ft 20 kts 355°
2026-04-26 21:00 44.22284 -76.60220 301 ft 21 kts 356°
2026-04-26 21:00 44.22436 -76.60235 300 ft 22 kts 356°
2026-04-26 21:00 44.22590 -76.60250 301 ft 22 kts 356°
2026-04-26 21:00 44.22748 -76.60266 300 ft 23 kts 356°
2026-04-26 21:01 44.22908 -76.60282 301 ft 23 kts 356°
2026-04-26 21:01 44.23068 -76.60298 300 ft 23 kts 356°
2026-04-26 21:01 44.23230 -76.60314 301 ft 23 kts 355°
2026-04-26 21:01 44.23375 -76.60331 300 ft 16 kts 352°
2026-04-26 21:02 44.23436 -76.60331 302 ft 9 kts 132°
2026-04-26 21:02 44.23386 -76.60329 300 ft 0 kts 178°
2026-04-26 21:02 44.23356 -76.60326 300 ft 17 kts 175°
2026-04-26 21:02 44.23053 -76.60295 302 ft 70 kts 176°
2026-04-26 21:03 44.22470 -76.60215 439 ft 92 kts 178°
2026-04-26 21:03 44.21791 -76.60126 720 ft 106 kts 176°
2026-04-26 21:03 44.20995 -76.60013 1029 ft 121 kts 178°
2026-04-26 21:03 44.20126 -76.60456 1275 ft 151 kts 221°
2026-04-26 21:04 44.19505 -76.61638 1875 ft 153 kts 247°
2026-04-26 21:04 44.19128 -76.63049 2441 ft 159 kts 251°
2026-04-26 21:04 44.18691 -76.64489 3072 ft 161 kts 247°
2026-04-26 21:04 44.18225 -76.65914 3674 ft 164 kts 248°
2026-04-26 21:05 44.17757 -76.67371 4231 ft 166 kts 248°
2026-04-26 21:05 44.17283 -76.68854 4798 ft 169 kts 248°
2026-04-26 21:05 44.16802 -76.70359 5339 ft 171 kts 249°
2026-04-26 21:05 44.16314 -76.71886 5877 ft 174 kts 249°
2026-04-26 21:06 44.15819 -76.73431 6423 ft 176 kts 250°
2026-04-26 21:06 44.15319 -76.74995 6936 ft 178 kts 250°
2026-04-26 21:06 44.14814 -76.76569 7461 ft 178 kts 250°
2026-04-26 21:06 44.14308 -76.78146 7973 ft 179 kts 251°
2026-04-26 21:07 44.13800 -76.79729 8484 ft 180 kts 251°
2026-04-26 21:07 44.13290 -76.81319 8999 ft 180 kts 251°
2026-04-26 21:07 44.12777 -76.82915 9514 ft 181 kts 251°
2026-04-26 21:07 44.12262 -76.84518 10047 ft 182 kts 251°
2026-04-26 21:08 44.11744 -76.86126 10554 ft 182 kts 251°
2026-04-26 21:08 44.11233 -76.87713 11055 ft 182 kts 252°
2026-04-26 21:08 44.10708 -76.89344 11558 ft 183 kts 252°
2026-04-26 21:08 44.10188 -76.90957 12055 ft 183 kts 253°
2026-04-26 21:09 44.09674 -76.92554 12544 ft 184 kts 253°
2026-04-26 21:09 44.09150 -76.94177 13058 ft 184 kts 253°
2026-04-26 21:09 44.08625 -76.95802 13578 ft 184 kts 254°
2026-04-26 21:09 44.08099 -76.97429 14086 ft 185 kts 254°
2026-04-26 21:10 44.07702 -76.98661 14413 ft 186 kts 254°
2026-04-26 21:10 44.07169 -77.00308 14846 ft 187 kts 254°
2026-04-26 21:10 44.06632 -77.01969 15273 ft 189 kts 254°
2026-04-26 21:10 44.06089 -77.03645 15710 ft 191 kts 254°
2026-04-26 21:11 44.05542 -77.05335 16140 ft 192 kts 254°
2026-04-26 21:11 44.04989 -77.07038 16573 ft 194 kts 254°
2026-04-26 21:11 44.04430 -77.08770 16787 ft 207 kts 254°
2026-04-26 21:11 44.03803 -77.10744 16512 ft 237 kts 253°
2026-04-26 21:12 44.03095 -77.12929 16233 ft 257 kts 252°
2026-04-26 21:12 44.02336 -77.15239 16010 ft 267 kts 251°
2026-04-26 21:12 44.01567 -77.17577 16011 ft 265 kts 252°
2026-04-26 21:12 44.00807 -77.19909 16007 ft 265 kts 252°
2026-04-26 21:13 44.00050 -77.22236 16001 ft 264 kts 252°
2026-04-26 21:13 43.99292 -77.24559 16003 ft 264 kts 252°
2026-04-26 21:13 43.98534 -77.26878 15999 ft 264 kts 252°
2026-04-26 21:13 43.97778 -77.29192 16001 ft 263 kts 252°
2026-04-26 21:14 43.97020 -77.31507 16000 ft 263 kts 252°
2026-04-26 21:14 43.96262 -77.33821 15994 ft 263 kts 252°
2026-04-26 21:14 43.95486 -77.36121 15997 ft 264 kts 247°
2026-04-26 21:14 43.94564 -77.38320 15992 ft 264 kts 246°
2026-04-26 21:15 43.93663 -77.40535 15993 ft 264 kts 246°
2026-04-26 21:15 43.92767 -77.42755 15996 ft 264 kts 246°
2026-04-26 21:15 43.91860 -77.44971 15997 ft 264 kts 246°
2026-04-26 21:15 43.90949 -77.47184 15991 ft 264 kts 246°
2026-04-26 21:16 43.90040 -77.49399 15992 ft 264 kts 246°
2026-04-26 21:16 43.89133 -77.51608 15993 ft 264 kts 246°
2026-04-26 21:16 43.88224 -77.53822 15996 ft 264 kts 246°
2026-04-26 21:16 43.87314 -77.56034 16000 ft 264 kts 246°
2026-04-26 21:17 43.86404 -77.58245 16001 ft 264 kts 246°
2026-04-26 21:17 43.85494 -77.60455 16000 ft 264 kts 246°
2026-04-26 21:17 43.84595 -77.62635 15997 ft 264 kts 246°
2026-04-26 21:17 43.83685 -77.64843 16004 ft 264 kts 246°
2026-04-26 21:18 43.83070 -77.66333 16003 ft 264 kts 246°
2026-04-26 21:18 43.81864 -77.69252 16000 ft 264 kts 246°
2026-04-26 21:18 43.80952 -77.71457 16005 ft 264 kts 246°
2026-04-26 21:18 43.80039 -77.73663 16012 ft 264 kts 246°
2026-04-26 21:19 43.79127 -77.75866 16006 ft 264 kts 246°
2026-04-26 21:19 43.78217 -77.78062 16011 ft 264 kts 246°
2026-04-26 21:19 43.77304 -77.80263 16011 ft 264 kts 246°
2026-04-26 21:19 43.76391 -77.82463 16017 ft 264 kts 246°
2026-04-26 21:20 43.75476 -77.84665 16013 ft 264 kts 246°
2026-04-26 21:20 43.74563 -77.86863 16017 ft 264 kts 246°
2026-04-26 21:20 43.73650 -77.89056 16013 ft 264 kts 246°
2026-04-26 21:20 43.72736 -77.91253 16016 ft 264 kts 246°
2026-04-26 21:21 43.71821 -77.93449 16012 ft 264 kts 246°
2026-04-26 21:21 43.70906 -77.95643 16011 ft 263 kts 246°
2026-04-26 21:21 43.69990 -77.97837 16011 ft 263 kts 246°
2026-04-26 21:21 43.69074 -78.00030 16007 ft 263 kts 246°
2026-04-26 21:22 43.68152 -78.02242 15783 ft 271 kts 246°
2026-04-26 21:22 43.67197 -78.04537 15388 ft 280 kts 245°
2026-04-26 21:22 43.66211 -78.06892 15010 ft 286 kts 245°
2026-04-26 21:23 43.64202 -78.11674 14334 ft 286 kts 245°
2026-04-26 21:23 43.63223 -78.14003 13998 ft 276 kts 245°
2026-04-26 21:23 43.62273 -78.16269 13624 ft 271 kts 245°
2026-04-26 21:23 43.61325 -78.18530 13256 ft 274 kts 245°
2026-04-26 21:24 43.60366 -78.20811 12892 ft 275 kts 244°
2026-04-26 21:24 43.59402 -78.23098 12532 ft 276 kts 244°
2026-04-26 21:24 43.58437 -78.25386 12183 ft 276 kts 244°
2026-04-26 21:24 43.57479 -78.27658 11936 ft 273 kts 244°
2026-04-26 21:25 43.56528 -78.29911 11684 ft 271 kts 244°
2026-04-26 21:25 43.55581 -78.32154 11434 ft 270 kts 244°
2026-04-26 21:25 43.54638 -78.34386 11191 ft 270 kts 244°
2026-04-26 21:25 43.53694 -78.36619 10946 ft 269 kts 244°
2026-04-26 21:26 43.52750 -78.38848 10703 ft 269 kts 244°
2026-04-26 21:26 43.51809 -78.41069 10460 ft 268 kts 244°
2026-04-26 21:26 43.50870 -78.43286 10222 ft 268 kts 244°
2026-04-26 21:26 43.50249 -78.44749 10054 ft 268 kts 244°
2026-04-26 21:27 43.49310 -78.46962 9786 ft 268 kts 243°
2026-04-26 21:27 43.48370 -78.49173 9528 ft 267 kts 243°
2026-04-26 21:27 43.47428 -78.51390 9221 ft 268 kts 243°
2026-04-26 21:27 43.46488 -78.53601 8913 ft 267 kts 243°
2026-04-26 21:28 43.45553 -78.55796 8602 ft 264 kts 242°
2026-04-26 21:28 43.44627 -78.57969 8308 ft 262 kts 242°
2026-04-26 21:28 43.43705 -78.60132 8060 ft 262 kts 242°
2026-04-26 21:28 43.42782 -78.62294 7826 ft 262 kts 242°
2026-04-26 21:29 43.41863 -78.64446 7631 ft 260 kts 242°
2026-04-26 21:29 43.40947 -78.66588 7441 ft 259 kts 241°
2026-04-26 21:29 43.40033 -78.68725 7233 ft 259 kts 241°
2026-04-26 21:29 43.39120 -78.70860 7037 ft 259 kts 241°
2026-04-26 21:30 43.38207 -78.72990 6843 ft 259 kts 241°
2026-04-26 21:30 43.37293 -78.75123 6654 ft 259 kts 240°
2026-04-26 21:30 43.36380 -78.77251 6447 ft 259 kts 240°
2026-04-26 21:30 43.35467 -78.79379 6233 ft 258 kts 240°
2026-04-26 21:31 43.34555 -78.81502 6030 ft 258 kts 240°
2026-04-26 21:31 43.33653 -78.83600 6001 ft 252 kts 240°
2026-04-26 21:31 43.32772 -78.85647 5993 ft 248 kts 240°
2026-04-26 21:31 43.31994 -78.87734 5966 ft 245 kts 248°
2026-04-26 21:32 43.31384 -78.89963 5705 ft 252 kts 251°
2026-04-26 21:32 43.30752 -78.92233 5452 ft 256 kts 248°
2026-04-26 21:32 43.30063 -78.94481 5205 ft 256 kts 247°
2026-04-26 21:32 43.29365 -78.96721 4968 ft 255 kts 247°
2026-04-26 21:33 43.28681 -78.98966 4703 ft 255 kts 247°
2026-04-26 21:33 43.28002 -79.01209 4443 ft 253 kts 247°
2026-04-26 21:33 43.27332 -79.03415 4183 ft 248 kts 247°
2026-04-26 21:33 43.26672 -79.05578 4006 ft 242 kts 246°
2026-04-26 21:34 43.26028 -79.07683 4005 ft 238 kts 246°
2026-04-26 21:34 43.25393 -79.09760 4003 ft 236 kts 247°
2026-04-26 21:34 43.24757 -79.11840 3992 ft 239 kts 247°
2026-04-26 21:34 43.24111 -79.13956 3817 ft 241 kts 247°
2026-04-26 21:35 43.23460 -79.16089 3564 ft 246 kts 247°
2026-04-26 21:35 43.22802 -79.18237 3297 ft 243 kts 246°
2026-04-26 21:35 43.22153 -79.20349 3036 ft 245 kts 246°
2026-04-26 21:35 43.21496 -79.22495 3002 ft 235 kts 246°
2026-04-26 21:36 43.20868 -79.24537 3007 ft 230 kts 246°
2026-04-26 21:36 43.20253 -79.26536 3001 ft 228 kts 246°
2026-04-26 21:36 43.19639 -79.28533 3008 ft 228 kts 246°
2026-04-26 21:36 43.19025 -79.30530 2992 ft 226 kts 246°
2026-04-26 21:37 43.18422 -79.32482 2992 ft 220 kts 246°
2026-04-26 21:37 43.17831 -79.34393 2996 ft 216 kts 246°
2026-04-26 21:37 43.17247 -79.36284 2995 ft 214 kts 246°
2026-04-26 21:37 43.16669 -79.38153 2996 ft 212 kts 246°
2026-04-26 21:38 43.15845 -79.39798 2868 ft 213 kts 219°
2026-04-26 21:38 43.14527 -79.40714 2671 ft 215 kts 190°
2026-04-26 21:38 43.13064 -79.40661 2483 ft 206 kts 162°
2026-04-26 21:38 43.11847 -79.39769 2257 ft 197 kts 140°
2026-04-26 21:39 43.10771 -79.38632 2208 ft 194 kts 140°
2026-04-26 21:39 43.09851 -79.37350 2202 ft 186 kts 117°
2026-04-26 21:39 43.09517 -79.35698 2205 ft 179 kts 90°
2026-04-26 21:39 43.09792 -79.34066 2209 ft 179 kts 64°
2026-04-26 21:40 43.10514 -79.32672 2209 ft 180 kts 53°
2026-04-26 21:40 43.11280 -79.31320 2205 ft 180 kts 54°
2026-04-26 21:40 43.12043 -79.29957 2208 ft 182 kts 54°
2026-04-26 21:40 43.12764 -79.28663 2193 ft 159 kts 54°
2026-04-26 21:41 43.13391 -79.27538 2110 ft 143 kts 54°
2026-04-26 21:41 43.13967 -79.26508 1953 ft 130 kts 54°
2026-04-26 21:41 43.14498 -79.25558 1775 ft 122 kts 53°
2026-04-26 21:41 43.15009 -79.24643 1604 ft 120 kts 54°
2026-04-26 21:42 43.15507 -79.23752 1440 ft 115 kts 54°
2026-04-26 21:42 43.15948 -79.22964 1285 ft 95 kts 54°
2026-04-26 21:42 43.16326 -79.22289 1163 ft 88 kts 53°
2026-04-26 21:42 43.16707 -79.21609 1031 ft 92 kts 51°
2026-04-26 21:43 43.17099 -79.20924 942 ft 90 kts 53°
2026-04-26 21:43 43.17470 -79.20235 802 ft 91 kts 50°
2026-04-26 21:43 43.17866 -79.19541 672 ft 90 kts 52°
2026-04-26 21:43 43.18235 -79.18871 557 ft 90 kts 50°
2026-04-26 21:44 43.18609 -79.18201 427 ft 86 kts 51°
2026-04-26 21:44 43.18941 -79.17599 326 ft 70 kts 51°
2026-04-26 21:44 43.19178 -79.17171 327 ft 40 kts 53°
2026-04-26 21:44 43.19267 -79.16988 324 ft 8 kts 70°
2026-04-26 21:45 43.19282 -79.17002 326 ft 8 kts 222°
2026-04-26 21:45 43.19227 -79.17078 325 ft 13 kts 229°
2026-04-26 21:45 43.19152 -79.17150 325 ft 15 kts 183°
2026-04-26 21:45 43.19066 -79.17145 325 ft 8 kts 166°
2026-04-26 21:46 43.19012 -79.17163 324 ft 9 kts 226°
2026-04-26 21:46 43.18968 -79.17165 325 ft 9 kts 131°
2026-04-26 21:46 43.18955 -79.17128 325 ft 2 kts 58°
2026-04-26 21:46 43.18957 -79.17125 325 ft 0 kts 40°